New Orleans, LA

10:34 PM CST on February 26, 2017 (GMT -0600)
Lakefront

Weather History for KNEW - November, 2013

Change the Weather History Date:

Wednesday, November 13, 2013

  Actual Average Record
Temperature  
Mean Temperature 47 °F 63 °F  
Max Temperature 56 °F 73 °F 83 °F (1955)
Min Temperature 38 °F 54 °F 28 °F (1968)
Degree Days  
Heating Degree Days 18 4  
Month to date heating degree days 44 40  
Since 1 July heating degree days 49 65  
Cooling Degree Days 0 2  
Month to date cooling degree days 22 40  
Year to date cooling degree days 2930 2949  
Moisture  
Dew Point 29 °F    
Average Humidity 49    
Maximum Humidity 65    
Minimum Humidity 32    
Precipitation  
Precipitation 0.00 in 0.14 in 5.37 in (1961)
Month to date precipitation 0.10 1.82  
Year to date precipitation 61.38 54.54  
Snow  
Snow 0.00 in - - ()
Month to date snowfall 0.0  
Since 1 July snowfall 0.0  
Since 1 September snowfall 0.0  
Snow Depth 0.00 in    
Sea Level Pressure  
Sea Level Pressure 30.45 in    
Wind  
Wind Speed 15 mph (NE)    
Max Wind Speed 29 mph    
Max Gust Speed 36 mph    
Visibility 10 miles    
Events      
T = Trace of Precipitation, MM = Missing Value Source: NWS Daily Summary

Daily Weather History Graph

Daily Weather History Graph

Search for Another Location

Airport or City:

Trip Planner

Search our weather history database for the weather conditions in past years. The results will help you decide how hot, cold, wet, or windy it might be!

Date:

Astronomy

Nov. 13, 2013 Rise Set
Actual Time 6:23 AM CST 5:04 PM CST
Civil Twilight 5:58 AM CST 5:30 PM CST
Nautical Twilight 5:29 AM CST 5:58 PM CST
Astronomical Twilight 5:01 AM CST 6:27 PM CST
Moon 2:38 PM CST (11/13) 2:33 AM CST (11/13)
Length of Visible Light 11h 31m
Length of Day
10h 40m
Waxing Gibbous, 85% of the Moon is Illuminated
Nov 13
Waxing Gibbous
Nov 17
Full
Nov 25
Last Quarter
Dec 2
New
Dec 9
First Quarter

Hourly Weather History & Observations

Time (CST) Temp. Windchill Dew Point Humidity Pressure Visibility Wind Dir Wind Speed Gust Speed Precip Events Conditions
12:53 AM 46.0 °F 37.0 °F 33.1 °F 61% 30.46 in 10.0 mi NNE 27.6 mph 35.7 mph N/A   Clear
1:53 AM 45.0 °F 35.8 °F 33.1 °F 63% 30.45 in 10.0 mi NNE 26.5 mph - N/A   Clear
2:53 AM 44.1 °F 35.0 °F 30.9 °F 60% 30.46 in 10.0 mi NNE 24.2 mph 32.2 mph N/A   Clear
3:53 AM 43.0 °F 33.8 °F 30.9 °F 62% 30.46 in 10.0 mi NNE 23.0 mph 31.1 mph N/A   Clear
4:53 AM 42.1 °F 31.9 °F 30.0 °F 62% 30.47 in 10.0 mi NNE 26.5 mph 34.5 mph N/A   Clear
5:53 AM 41.0 °F 30.5 °F 28.9 °F 62% 30.49 in 10.0 mi NNE 26.5 mph 31.1 mph N/A   Clear
6:53 AM 39.9 °F 29.0 °F 28.0 °F 63% 30.50 in 10.0 mi NE 26.5 mph - N/A   Clear
7:53 AM 41.0 °F 30.9 °F 28.0 °F 60% 30.51 in 10.0 mi NE 24.2 mph 32.2 mph N/A   Clear
8:53 AM 42.1 °F 32.3 °F 28.0 °F 58% 30.52 in 10.0 mi NE 24.2 mph - N/A   Clear
9:53 AM 45.0 °F 37.6 °F 28.0 °F 52% 30.51 in 10.0 mi NE 17.3 mph - N/A   Clear
10:53 AM 46.9 °F - 28.0 °F 48% 30.50 in 10.0 mi NNE 12.7 mph - N/A   Clear
11:53 AM 51.1 °F - 27.0 °F 39% 30.47 in 10.0 mi NNE 16.1 mph - N/A   Clear
12:53 PM 54.0 °F - 28.9 °F 38% 30.44 in 10.0 mi NNE 11.5 mph - N/A   Clear
1:53 PM 55.0 °F - 28.9 °F 37% 30.42 in 10.0 mi NE 12.7 mph - N/A   Clear
2:53 PM 57.0 °F - 28.0 °F 33% 30.41 in 10.0 mi NE 13.8 mph - N/A   Clear
3:53 PM 57.0 °F - 28.0 °F 33% 30.40 in 10.0 mi NNE 13.8 mph - N/A   Clear
4:53 PM 55.9 °F - 28.0 °F 34% 30.40 in 10.0 mi NE 15.0 mph - N/A   Clear
5:53 PM 55.0 °F - 30.0 °F 38% 30.41 in 10.0 mi NE 13.8 mph - N/A   Clear
6:53 PM 54.0 °F - 28.9 °F 38% 30.43 in 10.0 mi NE 16.1 mph - N/A   Clear
7:53 PM 53.1 °F - 30.0 °F 41% 30.43 in 10.0 mi ENE 17.3 mph - N/A   Clear
8:53 PM 52.0 °F - 30.0 °F 43% 30.45 in 10.0 mi ENE 16.1 mph - N/A   Clear
9:53 PM 52.0 °F - 30.0 °F 43% 30.43 in 10.0 mi ENE 20.7 mph - N/A   Clear
10:53 PM 51.1 °F - 30.9 °F 46% 30.41 in 10.0 mi ENE 18.4 mph - N/A   Clear
11:53 PM 50.0 °F - 30.9 °F 48% 30.39 in 10.0 mi ENE 17.3 mph - N/A   Clear